Location: Bowman Observatory
(41.0326°N, 73.6210°W)
Time: 22:20:30
(UTC-04:00)

Cosmos 2297 - Visible Passes

Search period start: 29 March 2015 00:00
Search period end: 08 April 2015 00:00
Orbit: 835 x 860 km, 71.0° (Epoch: 28 March)

Date Brightness Start Highest point End Pass type
(mag) Time Alt. Az. Time Alt. Az. Time Alt. Az.
29 Mar 5.7 02:43:33 23° NNE 02:43:33 23° NNE 02:45:42 10° NNE visible
29 Mar 5.9 04:25:29 11° NW 04:25:31 11° NW 04:27:07 10° NNW visible
30 Mar 5.8 02:30:28 22° NNE 02:30:28 22° NNE 02:32:26 10° NNE visible
30 Mar 6.0 04:12:23 11° NW 04:12:23 11° NW 04:13:57 10° NNW visible
31 Mar 5.9 02:17:21 21° NNE 02:17:21 21° NNE 02:19:09 10° NNE visible
31 Mar 6.0 03:59:17 12° NW 03:59:17 12° NW 04:00:46 10° NNW visible
01 Apr 6.0 02:04:13 20° NNE 02:04:13 20° NNE 02:05:53 10° NNE visible
01 Apr 6.0 03:46:09 12° NW 03:46:09 12° NW 03:47:35 10° NNW visible
02 Apr 6.0 01:51:04 19° NNE 01:51:04 19° NNE 01:52:37 10° NNE visible
02 Apr 6.1 03:32:59 12° NW 03:32:59 12° NW 03:34:23 10° NNW visible
03 Apr 6.1 01:37:53 18° NNE 01:37:53 18° NNE 01:39:20 10° NNE visible
03 Apr 6.1 03:19:48 12° NW 03:19:48 12° NW 03:21:12 10° NNW visible
04 Apr 6.1 01:24:41 18° NNE 01:24:41 18° NNE 01:26:04 10° NNE visible
04 Apr 6.1 03:06:35 12° NNW 03:06:35 12° NNW 03:08:00 10° NNW visible
05 Apr 6.1 01:11:26 18° NNE 01:11:26 18° NNE 01:12:48 10° NNE visible
05 Apr 6.2 02:53:21 12° NNW 02:53:21 12° NNW 02:54:48 10° NNW visible
06 Apr 6.1 00:58:10 18° NNE 00:58:10 18° NNE 00:59:31 10° NNE visible
06 Apr 6.2 02:40:05 12° NNW 02:40:05 12° NNW 02:41:35 10° NNW visible
07 Apr 6.1 00:44:52 18° NNE 00:44:52 18° NNE 00:46:15 10° NNE visible
07 Apr 6.2 02:26:47 13° NNW 02:26:47 13° NNW 02:28:22 10° NNW visible
